Time,TemperatureF,DewpointF,PressureIn,WindDirection,WindDirectionDegrees,WindSpeedMPH,WindSpeedGustMPH,Humidity,HourlyPrecipIn,Conditions,Clouds,dailyrainin,SoftwareType,DateUTC
2013-01-01 00:00:00,23.9,8.0,25.40,WSW,257,4.0,5.4,50,0.00,,---,0.00,VWS V14.00,2013-01-01 07:00:00,
2013-01-01 00:05:00,24.1,8.6,25.40,WSW,257,4.5,4.9,51,0.00,,---,0.00,VWS V14.00,2013-01-01 07:05:00,
2013-01-01 00:10:00,24.3,9.2,25.40,WSW,257,5.4,5.4,52,0.00,,---,0.00,VWS V14.00,2013-01-01 07:10:00,
2013-01-01 00:15:00,24.6,9.5,25.40,WSW,256,4.0,4.0,52,0.00,,---,0.00,VWS V14.00,2013-01-01 07:15:00,
2013-01-01 00:21:00,24.8,9.7,25.40,WSW,256,4.0,4.0,52,0.00,,---,0.00,VWS V14.00,2013-01-01 07:21:00,
2013-01-01 00:26:00,25.0,9.9,25.40,WSW,256,4.9,4.9,52,0.00,,---,0.00,VWS V14.00,2013-01-01 07:26:00,
2013-01-01 00:31:00,24.8,9.7,25.40,WSW,256,4.9,5.4,52,0.00,,---,0.00,VWS V14.00,2013-01-01 07:31:00,
2013-01-01 00:36:00,24.6,9.5,25.40,WSW,256,5.8,5.8,52,0.00,,---,0.00,VWS V14.00,2013-01-01 07:36:00,
2013-01-01 00:41:00,24.4,9.4,25.40,WSW,257,5.8,5.8,52,0.00,,---,0.00,VWS V14.00,2013-01-01 07:41:00,
2013-01-01 00:46:00,24.3,8.8,25.40,WSW,256,4.9,5.4,51,0.00,,---,0.00,VWS V14.00,2013-01-01 07:46:00,
2013-01-01 00:51:00,24.3,9.2,25.40,WSW,256,5.8,5.8,52,0.00,,---,0.00,VWS V14.00,2013-01-01 07:51:00,
2013-01-01 00:56:00,24.4,9.8,25.40,WSW,254,5.4,5.8,53,0.00,,---,0.00,VWS V14.00,2013-01-01 07:56:00,
2013-01-01 01:01:00,24.8,10.1,25.40,WSW,254,6.3,6.3,53,0.00,,---,0.00,VWS V14.00,2013-01-01 08:01:00,
2013-01-01 01:06:00,25.0,10.3,25.40,WSW,254,6.3,6.3,53,0.00,,---,0.00,VWS V14.00,2013-01-01 08:06:00,
2013-01-01 01:12:00,25.2,10.0,25.40,WSW,254,4.9,5.8,52,0.00,,---,0.00,VWS V14.00,2013-01-01 08:12:00,
2013-01-01 01:17:00,25.0,9.9,25.40,WSW,254,5.8,5.8,52,0.00,,---,0.00,VWS V14.00,2013-01-01 08:17:00,
2013-01-01 01:22:00,25.2,9.6,25.40,WSW,254,5.4,5.4,51,0.00,,---,0.00,VWS V14.00,2013-01-01 08:22:00,
2013-01-01 01:27:00,25.5,10.4,25.40,West,267,5.8,5.8,52,0.00,,---,0.00,VWS V14.00,2013-01-01 08:27:00,
2013-01-01 01:32:00,26.2,11.0,25.40,West,264,5.8,6.3,52,0.00,,---,0.00,VWS V14.00,2013-01-01 08:32:00,
2013-01-01 01:37:00,27.0,10.8,25.40,West,270,8.1,8.1,50,0.00,,---,0.00,VWS V14.00,2013-01-01 08:37:00,
2013-01-01 01:42:00,27.1,9.6,25.40,West,267,8.1,8.1,47,0.00,,---,0.00,VWS V14.00,2013-01-01 08:42:00,
2013-01-01 01:47:00,27.5,9.0,25.40,West,262,8.3,8.3,45,0.00,,---,0.00,VWS V14.00,2013-01-01 08:47:00,
2013-01-01 01:52:00,27.7,8.6,25.40,West,263,5.8,7.6,44,0.00,,---,0.00,VWS V14.00,2013-01-01 08:52:00,
2013-01-01 01:57:00,27.7,8.1,25.40,West,273,6.3,6.3,43,0.00,,---,0.00,VWS V14.00,2013-01-01 08:57:00,
2013-01-01 02:02:00,27.7,8.1,25.40,West,267,6.3,8.1,43,0.00,,---,0.00,VWS V14.00,2013-01-01 09:02:00,
2013-01-01 02:08:00,27.5,7.9,25.40,WSW,258,7.2,8.3,43,0.00,,---,0.00,VWS V14.00,2013-01-01 09:08:00,
2013-01-01 02:13:00,27.3,7.8,25.40,West,268,7.2,8.1,43,0.00,,---,0.00,VWS V14.00,2013-01-01 09:13:00,
2013-01-01 02:18:00,27.3,7.8,25.40,WSW,256,5.8,5.8,43,0.00,,---,0.00,VWS V14.00,2013-01-01 09:18:00,
2013-01-01 02:23:00,27.3,8.3,25.43,WSW,255,4.0,4.5,44,0.00,,---,0.00,VWS V14.00,2013-01-01 09:23:00,
2013-01-01 02:28:00,27.1,8.1,25.43,WSW,255,5.4,5.4,44,0.00,,---,0.00,VWS V14.00,2013-01-01 09:28:00,
2013-01-01 02:33:00,27.0,8.0,25.43,WSW,255,4.9,5.4,44,0.00,,---,0.00,VWS V14.00,2013-01-01 09:33:00,
2013-01-01 02:38:00,26.4,7.5,25.43,WSW,255,0.0,0.0,44,0.00,,---,0.00,VWS V14.00,2013-01-01 09:38:00,
2013-01-01 02:43:00,25.5,6.2,25.43,ESE,117,4.0,4.9,43,0.00,,---,0.00,VWS V14.00,2013-01-01 09:43:00,
2013-01-01 02:48:00,24.6,5.8,25.43,ESE,118,0.0,0.0,44,0.00,,---,0.00,VWS V14.00,2013-01-01 09:48:00,
2013-01-01 02:54:00,23.9,5.2,25.43,ESE,118,0.0,0.0,44,0.00,,---,0.00,VWS V14.00,2013-01-01 09:54:00,
2013-01-01 02:59:00,23.5,4.8,25.43,ESE,118,0.0,0.0,44,0.00,,---,0.00,VWS V14.00,2013-01-01 09:59:00,
2013-01-01 03:04:00,23.0,4.8,25.43,SSW,198,0.0,0.0,45,0.00,,---,0.00,VWS V14.00,2013-01-01 10:04:00,
2013-01-01 03:09:00,23.0,5.3,25.43,SSW,198,0.0,0.0,46,0.00,,---,0.00,VWS V14.00,2013-01-01 10:09:00,
2013-01-01 03:14:00,23.0,5.8,25.43,SSW,201,4.0,4.0,47,0.00,,---,0.00,VWS V14.00,2013-01-01 10:14:00,
2013-01-01 03:19:00,23.4,6.1,25.43,SSW,202,0.0,0.0,47,0.00,,---,0.00,VWS V14.00,2013-01-01 10:19:00,
2013-01-01 03:24:00,23.5,6.8,25.43,SSW,203,0.0,0.0,48,0.00,,---,0.00,VWS V14.00,2013-01-01 10:24:00,
2013-01-01 03:29:00,23.4,6.6,25.43,SSW,203,0.0,0.0,48,0.00,,---,0.00,VWS V14.00,2013-01-01 10:29:00,
2013-01-01 03:35:00,23.2,6.9,25.43,SSW,203,0.0,0.0,49,0.00,,---,0.00,VWS V14.00,2013-01-01 10:35:00,
2013-01-01 03:40:00,23.4,7.5,25.43,SW,221,0.0,0.0,50,0.00,,---,0.00,VWS V14.00,2013-01-01 10:40:00,
2013-01-01 03:45:00,23.5,8.1,25.43,SW,222,3.6,4.0,51,0.00,,---,0.00,VWS V14.00,2013-01-01 10:45:00,
2013-01-01 03:50:00,23.2,7.8,25.43,SW,222,0.0,0.0,51,0.00,,---,0.00,VWS V14.00,2013-01-01 10:50:00,
2013-01-01 03:55:00,23.0,7.6,25.43,SW,221,0.0,0.0,51,0.00,,---,0.00,VWS V14.00,2013-01-01 10:55:00,
2013-01-01 04:00:00,23.0,7.6,25.43,SW,221,0.0,0.0,51,0.00,,---,0.00,VWS V14.00,2013-01-01 11:00:00,
2013-01-01 04:05:00,22.8,7.4,25.43,SW,221,0.0,0.0,51,0.00,,---,0.00,VWS V14.00,2013-01-01 11:05:00,
2013-01-01 04:11:00,22.6,7.7,25.43,SW,230,4.0,5.4,52,0.00,,---,0.00,VWS V14.00,2013-01-01 11:11:00,
2013-01-01 04:16:00,22.8,7.8,25.43,SW,234,4.9,5.8,52,0.00,,---,0.00,VWS V14.00,2013-01-01 11:16:00,
2013-01-01 04:21:00,23.4,8.8,25.43,SW,234,4.0,4.5,53,0.00,,---,0.00,VWS V14.00,2013-01-01 11:21:00,
2013-01-01 04:26:00,23.4,8.8,25.43,SW,234,3.6,4.0,53,0.00,,---,0.00,VWS V14.00,2013-01-01 11:26:00,
2013-01-01 04:31:00,22.8,8.3,25.43,SW,234,5.4,5.4,53,0.00,,---,0.00,VWS V14.00,2013-01-01 11:31:00,
2013-01-01 04:36:00,22.3,7.3,25.43,SW,234,4.0,4.0,52,0.00,,---,0.00,VWS V14.00,2013-01-01 11:36:00,
2013-01-01 04:41:00,22.3,7.3,25.43,SW,234,4.9,5.4,52,0.00,,---,0.00,VWS V14.00,2013-01-01 11:41:00,
2013-01-01 04:47:00,22.5,7.9,25.43,SW,235,5.4,5.8,53,0.00,,---,0.00,VWS V14.00,2013-01-01 11:47:00,
2013-01-01 04:52:00,22.8,8.7,25.43,WSW,237,5.4,5.8,54,0.00,,---,0.00,VWS V14.00,2013-01-01 11:52:00,
2013-01-01 04:57:00,22.8,8.7,25.43,WSW,238,5.4,5.4,54,0.00,,---,0.00,VWS V14.00,2013-01-01 11:57:00,
2013-01-01 05:02:00,22.6,8.5,25.43,WSW,238,5.4,5.4,54,0.00,,---,0.00,VWS V14.00,2013-01-01 12:02:00,
2013-01-01 05:07:00,22.6,8.5,25.43,WSW,238,3.6,4.9,54,0.00,,---,0.00,VWS V14.00,2013-01-01 12:07:00,
2013-01-01 05:12:00,22.6,8.5,25.43,WSW,238,4.0,5.4,54,0.00,,---,0.00,VWS V14.00,2013-01-01 12:12:00,
2013-01-01 05:17:00,22.6,8.5,25.43,WSW,237,5.4,5.4,54,0.00,,---,0.00,VWS V14.00,2013-01-01 12:17:00,
2013-01-01 05:22:00,22.8,8.7,25.43,WSW,237,4.9,5.4,54,0.00,,---,0.00,VWS V14.00,2013-01-01 12:22:00,
2013-01-01 05:28:00,23.0,8.9,25.40,WSW,237,3.6,4.0,54,0.00,,---,0.00,VWS V14.00,2013-01-01 12:28:00,
2013-01-01 05:33:00,22.8,8.7,25.40,WSW,237,4.0,4.9,54,0.00,,---,0.00,VWS V14.00,2013-01-01 12:33:00,
2013-01-01 05:38:00,22.5,7.9,25.43,WSW,237,2.2,2.7,53,0.00,,---,0.00,VWS V14.00,2013-01-01 12:38:00,
2013-01-01 05:43:00,21.9,7.4,25.43,WSW,237,3.6,3.6,53,0.00,,---,0.00,VWS V14.00,2013-01-01 12:43:00,
2013-01-01 05:48:00,21.7,6.8,25.43,WSW,237,3.6,3.6,52,0.00,,---,0.00,VWS V14.00,2013-01-01 12:48:00,
2013-01-01 05:53:00,21.6,6.7,25.40,WSW,237,4.5,4.5,52,0.00,,---,0.00,VWS V14.00,2013-01-01 12:53:00,
2013-01-01 05:58:00,21.6,7.1,25.40,WSW,237,5.4,5.4,53,0.00,,---,0.00,VWS V14.00,2013-01-01 12:58:00,
2013-01-01 06:03:00,21.7,7.3,25.40,WSW,237,4.0,4.9,53,0.00,,---,0.00,VWS V14.00,2013-01-01 13:03:00,
2013-01-01 06:09:00,21.9,7.8,25.40,WSW,237,3.6,4.0,54,0.00,,---,0.00,VWS V14.00,2013-01-01 13:09:00,
2013-01-01 06:14:00,21.9,7.4,25.40,WSW,237,3.6,4.5,53,0.00,,---,0.00,VWS V14.00,2013-01-01 13:14:00,
2013-01-01 06:19:00,21.7,7.3,25.40,WSW,237,0.0,0.0,53,0.00,,---,0.00,VWS V14.00,2013-01-01 13:19:00,
2013-01-01 06:24:00,21.4,6.9,25.40,WSW,237,0.0,0.0,53,0.00,,---,0.00,VWS V14.00,2013-01-01 13:24:00,
2013-01-01 06:29:00,21.0,6.6,25.40,WSW,237,0.0,0.0,53,0.00,,---,0.00,VWS V14.00,2013-01-01 13:29:00,
2013-01-01 06:34:00,20.7,6.2,25.40,WSW,237,0.0,0.0,53,0.00,,---,0.00,VWS V14.00,2013-01-01 13:34:00,
2013-01-01 06:39:00,20.3,5.9,25.40,WSW,237,0.0,0.0,53,0.00,,---,0.00,VWS V14.00,2013-01-01 13:39:00,
2013-01-01 06:44:00,19.9,5.6,25.40,WSW,237,0.0,0.0,53,0.00,,---,0.00,VWS V14.00,2013-01-01 13:44:00,
2013-01-01 06:50:00,20.1,5.7,25.40,WSW,237,0.0,0.0,53,0.00,,---,0.00,VWS V14.00,2013-01-01 13:50:00,
2013-01-01 06:55:00,20.1,5.7,25.43,WSW,237,0.0,0.0,53,0.00,,---,0.00,VWS V14.00,2013-01-01 13:55:00,
2013-01-01 07:00:00,20.1,5.7,25.43,WSW,237,0.0,0.0,53,0.00,,---,0.00,VWS V14.00,2013-01-01 14:00:00,
2013-01-01 07:05:00,20.5,6.5,25.43,WSW,237,3.6,5.4,54,0.00,,---,0.00,VWS V14.00,2013-01-01 14:05:00,
2013-01-01 07:10:00,20.8,7.2,25.43,WSW,237,4.9,4.9,55,0.00,,---,0.00,VWS V14.00,2013-01-01 14:10:00,
2013-01-01 07:15:00,21.0,7.4,25.43,WSW,237,4.0,4.9,55,0.00,,---,0.00,VWS V14.00,2013-01-01 14:15:00,
2013-01-01 07:20:00,21.0,7.4,25.43,WSW,237,4.9,4.9,55,0.00,,---,0.00,VWS V14.00,2013-01-01 14:20:00,
2013-01-01 07:26:00,21.0,7.4,25.43,WSW,237,4.9,5.4,55,0.00,,---,0.00,VWS V14.00,2013-01-01 14:26:00,
2013-01-01 07:31:00,21.4,7.7,25.43,WSW,237,5.4,5.4,55,0.00,,---,0.00,VWS V14.00,2013-01-01 14:31:00,
2013-01-01 07:36:00,21.7,8.1,25.43,WSW,237,4.0,4.0,55,0.00,,---,0.00,VWS V14.00,2013-01-01 14:36:00,
2013-01-01 07:41:00,22.3,9.0,25.43,WSW,237,3.6,4.9,56,0.00,,---,0.00,VWS V14.00,2013-01-01 14:41:00,
2013-01-01 07:46:00,23.4,10.0,25.43,WSW,237,3.1,3.6,56,0.00,,---,0.00,VWS V14.00,2013-01-01 14:46:00,
2013-01-01 07:51:00,24.6,11.6,25.43,WSW,237,4.0,4.0,57,0.00,,---,0.00,VWS V14.00,2013-01-01 14:51:00,
2013-01-01 07:56:00,26.1,12.9,25.43,WSW,237,2.2,2.2,57,0.00,,---,0.00,VWS V14.00,2013-01-01 14:56:00,
2013-01-01 08:01:00,27.5,14.3,25.43,WSW,237,0.0,0.0,57,0.00,,---,0.00,VWS V14.00,2013-01-01 15:01:00,
2013-01-01 08:06:00,28.6,15.3,25.43,WSW,237,0.0,0.0,57,0.00,,---,0.00,VWS V14.00,2013-01-01 15:06:00,
2013-01-01 08:12:00,30.0,16.6,25.43,WSW,237,2.7,2.7,57,0.00,,---,0.00,VWS V14.00,2013-01-01 15:12:00,
2013-01-01 08:17:00,31.1,17.7,25.43,WSW,237,0.0,0.0,57,0.00,,---,0.00,VWS V14.00,2013-01-01 15:17:00,
2013-01-01 08:22:00,32.0,18.5,25.43,WSW,237,0.0,0.0,57,0.00,,---,0.00,VWS V14.00,2013-01-01 15:22:00,
2013-01-01 08:27:00,32.9,18.9,25.43,WSW,237,0.0,0.0,56,0.00,,---,0.00,VWS V14.00,2013-01-01 15:27:00,
2013-01-01 08:32:00,34.2,20.1,25.43,WSW,237,0.0,0.0,56,0.00,,---,0.00,VWS V14.00,2013-01-01 15:32:00,
2013-01-01 08:37:00,34.7,20.2,25.43,WSW,237,0.0,0.0,55,0.00,,---,0.00,VWS V14.00,2013-01-01 15:37:00,
2013-01-01 08:42:00,35.1,19.7,25.43,WSW,237,0.0,0.0,53,0.00,,---,0.00,VWS V14.00,2013-01-01 15:42:00,
2013-01-01 08:47:00,35.6,18.8,25.43,WSW,237,0.0,0.0,50,0.00,,---,0.00,VWS V14.00,2013-01-01 15:47:00,
2013-01-01 08:52:00,35.6,13.1,25.43,WSW,237,0.0,0.0,39,0.00,,---,0.00,VWS V14.00,2013-01-01 15:52:00,
2013-01-01 08:57:00,35.6,8.7,25.43,WSW,237,0.0,0.0,32,0.00,,---,0.00,VWS V14.00,2013-01-01 15:57:00,
2013-01-01 09:03:00,35.8,10.2,25.43,WSW,237,0.0,0.0,34,0.00,,---,0.00,VWS V14.00,2013-01-01 16:03:00,
2013-01-01 09:08:00,36.0,8.3,25.43,WSW,237,0.0,0.0,31,0.00,,---,0.00,VWS V14.00,2013-01-01 16:08:00,
2013-01-01 09:13:00,36.1,7.7,25.43,WSW,237,0.0,0.0,30,0.00,,---,0.00,VWS V14.00,2013-01-01 16:13:00,
2013-01-01 09:18:00,36.3,7.9,25.43,SE,128,0.0,0.0,30,0.00,,---,0.00,VWS V14.00,2013-01-01 16:18:00,
2013-01-01 09:23:00,36.3,7.9,25.43,ESE,112,0.0,0.0,30,0.00,,---,0.00,VWS V14.00,2013-01-01 16:23:00,
2013-01-01 09:28:00,36.3,7.9,25.43,ESE,112,0.0,0.0,30,0.00,,---,0.00,VWS V14.00,2013-01-01 16:28:00,
2013-01-01 09:33:00,36.7,8.2,25.43,ESE,112,0.0,0.0,30,0.00,,---,0.00,VWS V14.00,2013-01-01 16:33:00,
2013-01-01 09:38:00,36.7,7.4,25.43,ESE,112,0.0,2.2,29,0.00,,---,0.00,VWS V14.00,2013-01-01 16:38:00,
2013-01-01 09:43:00,36.9,7.6,25.43,ESE,112,0.0,0.0,29,0.00,,---,0.00,VWS V14.00,2013-01-01 16:43:00,
2013-01-01 09:48:00,36.9,7.6,25.43,ESE,112,0.0,0.0,29,0.00,,---,0.00,VWS V14.00,2013-01-01 16:48:00,
2013-01-01 09:54:00,36.7,5.9,25.45,ESE,105,2.2,3.6,27,0.00,,---,0.00,VWS V14.00,2013-01-01 16:54:00,
2013-01-01 09:59:00,36.7,7.4,25.45,ESE,105,0.0,0.0,29,0.00,,---,0.00,VWS V14.00,2013-01-01 16:59:00,
2013-01-01 10:04:00,36.9,7.6,25.45,East,86,5.4,5.4,29,0.00,,---,0.00,VWS V14.00,2013-01-01 17:04:00,
2013-01-01 10:09:00,37.0,6.2,25.45,ESE,113,5.4,5.4,27,0.00,,---,0.00,VWS V14.00,2013-01-01 17:09:00,
2013-01-01 10:14:00,36.7,5.9,25.45,East,90,4.0,4.0,27,0.00,,---,0.00,VWS V14.00,2013-01-01 17:14:00,
2013-01-01 10:19:00,36.5,5.7,25.45,ESE,116,0.0,0.0,27,0.00,,---,0.00,VWS V14.00,2013-01-01 17:19:00,
2013-01-01 10:24:00,36.9,6.0,25.43,ESE,119,0.0,3.1,27,0.00,,---,0.00,VWS V14.00,2013-01-01 17:24:00,
2013-01-01 10:29:00,37.4,5.7,25.43,ESE,116,0.0,0.0,26,0.00,,---,0.00,VWS V14.00,2013-01-01 17:29:00,
2013-01-01 10:34:00,37.0,6.2,25.43,ESE,116,0.0,0.0,27,0.00,,---,0.00,VWS V14.00,2013-01-01 17:34:00,
2013-01-01 10:40:00,37.2,6.3,25.43,East,100,0.0,2.7,27,0.00,,---,0.00,VWS V14.00,2013-01-01 17:40:00,
2013-01-01 10:45:00,37.2,6.3,25.43,East,97,0.0,0.0,27,0.00,,---,0.00,VWS V14.00,2013-01-01 17:45:00,
2013-01-01 10:50:00,37.4,8.1,25.43,NE,43,3.1,5.8,29,0.00,,---,0.00,VWS V14.00,2013-01-01 17:50:00,
2013-01-01 10:55:00,37.4,8.1,25.43,ENE,70,2.7,5.4,29,0.00,,---,0.00,VWS V14.00,2013-01-01 17:55:00,
2013-01-01 11:00:00,37.4,8.1,25.43,NE,47,3.1,5.8,29,0.00,,---,0.00,VWS V14.00,2013-01-01 18:00:00,
2013-01-01 11:05:00,37.4,8.1,25.43,NNE,33,3.1,3.1,29,0.00,,---,0.00,VWS V14.00,2013-01-01 18:05:00,
2013-01-01 11:10:00,37.4,8.1,25.43,NE,53,0.0,0.0,29,0.00,,---,0.00,VWS V14.00,2013-01-01 18:10:00,
2013-01-01 11:15:00,37.9,8.5,25.43,SE,126,4.9,4.9,29,0.00,,---,0.00,VWS V14.00,2013-01-01 18:15:00,
2013-01-01 11:20:00,38.5,9.0,25.43,NE,54,7.6,8.7,29,0.00,,---,0.00,VWS V14.00,2013-01-01 18:20:00,
2013-01-01 11:26:00,38.7,9.2,25.43,NNE,20,3.1,5.4,29,0.00,,---,0.00,VWS V14.00,2013-01-01 18:26:00,
2013-01-01 11:31:00,38.8,6.9,25.43,NNE,27,0.0,0.0,26,0.00,,---,0.00,VWS V14.00,2013-01-01 18:31:00,
2013-01-01 11:36:00,39.4,7.4,25.43,ENE,61,4.5,6.3,26,0.00,,---,0.00,VWS V14.00,2013-01-01 18:36:00,
2013-01-01 11:41:00,39.2,7.2,25.43,ESE,119,2.2,3.1,26,0.00,,---,0.00,VWS V14.00,2013-01-01 18:41:00,
2013-01-01 11:46:00,39.6,7.5,25.43,East,83,6.3,6.3,26,0.00,,---,0.00,VWS V14.00,2013-01-01 18:46:00,
2013-01-01 11:51:00,39.6,4.8,25.43,NE,39,4.0,4.0,23,0.00,,---,0.00,VWS V14.00,2013-01-01 18:51:00,
2013-01-01 11:56:00,39.7,5.0,25.40,NNE,14,0.0,0.0,23,0.00,,---,0.00,VWS V14.00,2013-01-01 18:56:00,
2013-01-01 12:01:00,39.7,5.0,25.40,East,101,0.0,0.0,23,0.00,,---,0.00,VWS V14.00,2013-01-01 19:01:00,
2013-01-01 12:06:00,39.9,5.1,25.40,NNE,13,0.0,3.6,23,0.00,,---,0.00,VWS V14.00,2013-01-01 19:06:00,
2013-01-01 12:11:00,39.9,5.1,25.40,ESE,118,6.3,6.3,23,0.00,,---,0.00,VWS V14.00,2013-01-01 19:11:00,
2013-01-01 12:17:00,40.1,5.3,25.40,SSE,164,4.9,4.9,23,0.00,,---,0.00,VWS V14.00,2013-01-01 19:17:00,
2013-01-01 12:22:00,40.3,5.4,25.40,South,173,0.0,0.0,23,0.00,,---,0.00,VWS V14.00,2013-01-01 19:22:00,
2013-01-01 12:27:00,40.6,5.8,25.40,SSE,160,0.0,0.0,23,0.00,,---,0.00,VWS V14.00,2013-01-01 19:27:00,
2013-01-01 12:32:00,40.8,5.9,25.40,East,91,6.3,6.3,23,0.00,,---,0.00,VWS V14.00,2013-01-01 19:32:00,
2013-01-01 12:37:00,41.0,6.1,25.40,ESE,111,4.9,5.4,23,0.00,,---,0.00,VWS V14.00,2013-01-01 19:37:00,
2013-01-01 12:42:00,41.0,6.1,25.40,ESE,110,3.6,4.0,23,0.00,,---,0.00,VWS V14.00,2013-01-01 19:42:00,
2013-01-01 12:47:00,41.0,6.1,25.40,ESE,106,4.0,6.3,23,0.00,,---,0.00,VWS V14.00,2013-01-01 19:47:00,
2013-01-01 12:52:00,41.2,6.2,25.37,NE,35,2.2,4.0,23,0.00,,---,0.00,VWS V14.00,2013-01-01 19:52:00,
2013-01-01 12:57:00,41.7,6.7,25.37,ESE,110,3.6,4.9,23,0.00,,---,0.00,VWS V14.00,2013-01-01 19:57:00,
2013-01-01 13:03:00,41.5,4.5,25.37,ENE,58,4.0,6.3,21,0.00,,---,0.00,VWS V14.00,2013-01-01 20:03:00,
2013-01-01 13:08:00,41.2,4.2,25.37,NE,56,0.0,3.1,21,0.00,,---,0.00,VWS V14.00,2013-01-01 20:08:00,
2013-01-01 13:13:00,41.7,4.7,25.37,NE,56,0.0,0.0,21,0.00,,---,0.00,VWS V14.00,2013-01-01 20:13:00,
2013-01-01 13:18:00,42.3,7.1,25.37,ESE,119,0.0,3.1,23,0.00,,---,0.00,VWS V14.00,2013-01-01 20:18:00,
2013-01-01 13:23:00,42.3,5.1,25.37,North,11,3.1,3.1,21,0.00,,---,0.00,VWS V14.00,2013-01-01 20:23:00,
2013-01-01 13:28:00,42.4,5.3,25.37,NE,35,6.7,8.1,21,0.00,,---,0.00,VWS V14.00,2013-01-01 20:28:00,
2013-01-01 13:33:00,42.4,5.3,25.37,NNW,342,5.8,5.8,21,0.00,,---,0.00,VWS V14.00,2013-01-01 20:33:00,
2013-01-01 13:38:00,43.0,4.7,25.37,North,11,2.2,4.0,20,0.00,,---,0.00,VWS V14.00,2013-01-01 20:38:00,
2013-01-01 13:43:00,43.3,5.0,25.37,East,82,2.7,4.9,20,0.00,,---,0.00,VWS V14.00,2013-01-01 20:43:00,
2013-01-01 13:49:00,43.0,4.7,25.37,NNE,30,0.0,2.7,20,0.00,,---,0.00,VWS V14.00,2013-01-01 20:49:00,
2013-01-01 13:54:00,43.0,4.7,25.37,NNE,27,5.4,8.7,20,0.00,,---,0.00,VWS V14.00,2013-01-01 20:54:00,
2013-01-01 13:59:00,43.0,4.7,25.37,NNE,30,0.0,0.0,20,0.00,,---,0.00,VWS V14.00,2013-01-01 20:59:00,
2013-01-01 14:04:00,43.2,4.8,25.37,North,353,0.0,0.0,20,0.00,,---,0.00,VWS V14.00,2013-01-01 21:04:00,
2013-01-01 14:09:00,43.2,4.8,25.34,NE,49,4.0,4.0,20,0.00,,---,0.00,VWS V14.00,2013-01-01 21:09:00,
2013-01-01 14:14:00,43.3,5.0,25.34,NNE,20,2.7,3.6,20,0.00,,---,0.00,VWS V14.00,2013-01-01 21:14:00,
2013-01-01 14:19:00,43.3,5.0,25.34,NE,47,6.7,6.7,20,0.00,,---,0.00,VWS V14.00,2013-01-01 21:19:00,
2013-01-01 14:24:00,43.3,5.0,25.34,NE,39,0.0,0.0,20,0.00,,---,0.00,VWS V14.00,2013-01-01 21:24:00,
2013-01-01 14:29:00,43.5,5.1,25.34,ENE,71,7.2,10.1,20,0.00,,---,0.00,VWS V14.00,2013-01-01 21:29:00,
2013-01-01 14:35:00,43.5,5.1,25.34,East,87,2.2,5.8,20,0.00,,---,0.00,VWS V14.00,2013-01-01 21:35:00,
2013-01-01 14:40:00,43.3,5.0,25.34,East,97,0.0,0.0,20,0.00,,---,0.00,VWS V14.00,2013-01-01 21:40:00,
2013-01-01 14:45:00,43.7,5.3,25.34,NE,44,0.0,5.4,20,0.00,,---,0.00,VWS V14.00,2013-01-01 21:45:00,
2013-01-01 14:50:00,43.7,5.3,25.34,SE,138,3.6,3.6,20,0.00,,---,0.00,VWS V14.00,2013-01-01 21:50:00,
2013-01-01 14:55:00,43.9,5.4,25.34,SE,137,0.0,0.0,20,0.00,,---,0.00,VWS V14.00,2013-01-01 21:55:00,
2013-01-01 15:00:00,44.2,5.7,25.34,SE,130,4.0,4.0,20,0.00,,---,0.00,VWS V14.00,2013-01-01 22:00:00,
2013-01-01 15:05:00,44.1,5.6,25.34,East,85,3.1,4.0,20,0.00,,---,0.00,VWS V14.00,2013-01-01 22:05:00,
2013-01-01 15:10:00,44.1,5.6,25.34,ESE,110,0.0,2.2,20,0.00,,---,0.00,VWS V14.00,2013-01-01 22:10:00,
2013-01-01 15:15:00,44.1,5.6,25.34,East,94,5.4,5.8,20,0.00,,---,0.00,VWS V14.00,2013-01-01 22:15:00,
2013-01-01 15:20:00,43.7,5.3,25.34,NE,55,5.4,6.3,20,0.00,,---,0.00,VWS V14.00,2013-01-01 22:20:00,
2013-01-01 15:26:00,43.9,5.4,25.34,East,94,0.0,4.0,20,0.00,,---,0.00,VWS V14.00,2013-01-01 22:26:00,
2013-01-01 15:31:00,43.9,5.4,25.34,East,90,4.0,5.8,20,0.00,,---,0.00,VWS V14.00,2013-01-01 22:31:00,
2013-01-01 15:36:00,44.1,5.6,25.34,ESE,102,4.9,4.9,20,0.00,,---,0.00,VWS V14.00,2013-01-01 22:36:00,
2013-01-01 15:41:00,44.1,5.6,25.34,East,90,0.0,3.6,20,0.00,,---,0.00,VWS V14.00,2013-01-01 22:41:00,
2013-01-01 15:46:00,44.1,5.6,25.34,East,83,5.8,5.8,20,0.00,,---,0.00,VWS V14.00,2013-01-01 22:46:00,
2013-01-01 15:51:00,44.2,5.7,25.34,SSE,149,0.0,3.1,20,0.00,,---,0.00,VWS V14.00,2013-01-01 22:51:00,
2013-01-01 15:56:00,44.1,5.6,25.34,NNE,28,2.2,4.0,20,0.00,,---,0.00,VWS V14.00,2013-01-01 22:56:00,
2013-01-01 16:01:00,44.1,5.6,25.34,East,85,3.1,4.5,20,0.00,,---,0.00,VWS V14.00,2013-01-01 23:01:00,
2013-01-01 16:06:00,43.9,5.4,25.34,East,95,4.5,4.5,20,0.00,,---,0.00,VWS V14.00,2013-01-01 23:06:00,
2013-01-01 16:12:00,43.7,5.3,25.34,ESE,113,0.0,0.0,20,0.00,,---,0.00,VWS V14.00,2013-01-01 23:12:00,
2013-01-01 16:17:00,43.7,5.3,25.34,ENE,71,3.6,4.0,20,0.00,,---,0.00,VWS V14.00,2013-01-01 23:17:00,
2013-01-01 16:22:00,43.7,5.3,25.34,ESE,120,0.0,0.0,20,0.00,,---,0.00,VWS V14.00,2013-01-01 23:22:00,
2013-01-01 16:27:00,43.7,5.3,25.34,ESE,103,0.0,0.0,20,0.00,,---,0.00,VWS V14.00,2013-01-01 23:27:00,
2013-01-01 16:32:00,43.3,5.0,25.34,ESE,115,3.1,3.1,20,0.00,,---,0.00,VWS V14.00,2013-01-01 23:32:00,
2013-01-01 16:37:00,42.4,5.3,25.34,ESE,112,0.0,0.0,21,0.00,,---,0.00,VWS V14.00,2013-01-01 23:37:00,
2013-01-01 16:42:00,41.7,4.7,25.34,ESE,112,0.0,0.0,21,0.00,,---,0.00,VWS V14.00,2013-01-01 23:42:00,
2013-01-01 16:47:00,41.0,4.1,25.34,ESE,112,0.0,0.0,21,0.00,,---,0.00,VWS V14.00,2013-01-01 23:47:00,
2013-01-01 16:52:00,39.4,2.7,25.34,ESE,112,0.0,0.0,21,0.00,,---,0.00,VWS V14.00,2013-01-01 23:52:00,
2013-01-01 16:58:00,38.3,1.8,25.34,ESE,112,0.0,0.0,21,0.00,,---,0.00,VWS V14.00,2013-01-01 23:58:00,
2013-01-01 17:03:00,36.9,1.6,25.34,SW,236,4.9,5.4,22,0.00,,---,0.00,VWS V14.00,2013-01-02 00:03:00,
2013-01-01 17:08:00,35.8,0.7,25.34,SW,236,0.0,2.7,22,0.00,,---,0.00,VWS V14.00,2013-01-02 00:08:00,
2013-01-01 17:13:00,35.2,3.0,25.34,SW,236,0.0,0.0,25,0.00,,---,0.00,VWS V14.00,2013-01-02 00:13:00,
2013-01-01 17:18:00,34.5,2.3,25.34,WSW,237,3.6,4.9,25,0.00,,---,0.00,VWS V14.00,2013-01-02 00:18:00,
2013-01-01 17:23:00,34.0,1.9,25.34,WSW,237,3.6,4.5,25,0.00,,---,0.00,VWS V14.00,2013-01-02 00:23:00,
2013-01-01 17:28:00,33.4,1.4,25.34,WSW,237,5.4,5.4,25,0.00,,---,0.00,VWS V14.00,2013-01-02 00:28:00,
2013-01-01 17:33:00,32.9,3.4,25.34,WSW,237,4.0,4.5,28,0.00,,---,0.00,VWS V14.00,2013-01-02 00:33:00,
2013-01-01 17:38:00,32.5,3.1,25.34,WSW,237,4.9,4.9,28,0.00,,---,0.00,VWS V14.00,2013-01-02 00:38:00,
2013-01-01 17:43:00,32.2,4.2,25.34,WSW,238,5.4,5.4,30,0.00,,---,0.00,VWS V14.00,2013-01-02 00:43:00,
2013-01-01 17:49:00,32.0,4.1,25.34,WSW,238,3.6,4.0,30,0.00,,---,0.00,VWS V14.00,2013-01-02 00:49:00,
2013-01-01 17:54:00,31.6,3.8,25.34,WSW,238,4.9,4.9,30,0.00,,---,0.00,VWS V14.00,2013-01-02 00:54:00,
2013-01-01 17:59:00,31.1,4.0,25.34,WSW,238,4.9,5.8,31,0.00,,---,0.00,VWS V14.00,2013-01-02 00:59:00,
2013-01-01 18:04:00,30.9,3.8,25.34,WSW,239,4.0,5.8,31,0.00,,---,0.00,VWS V14.00,2013-01-02 01:04:00,
2013-01-01 18:09:00,30.7,4.4,25.34,WSW,239,5.8,5.8,32,0.00,,---,0.00,VWS V14.00,2013-01-02 01:09:00,
2013-01-01 18:14:00,30.6,4.2,25.34,WSW,239,4.9,4.9,32,0.00,,---,0.00,VWS V14.00,2013-01-02 01:14:00,
2013-01-01 18:19:00,30.4,4.1,25.34,WSW,239,5.4,5.4,32,0.00,,---,0.00,VWS V14.00,2013-01-02 01:19:00,
2013-01-01 18:24:00,30.0,4.4,25.34,WSW,239,5.8,5.8,33,0.00,,---,0.00,VWS V14.00,2013-01-02 01:24:00,
2013-01-01 18:29:00,29.8,4.9,25.34,WSW,240,4.9,5.4,34,0.00,,---,0.00,VWS V14.00,2013-01-02 01:29:00,
2013-01-01 18:34:00,29.8,4.9,25.34,WSW,240,5.8,5.8,34,0.00,,---,0.00,VWS V14.00,2013-01-02 01:34:00,
2013-01-01 18:40:00,30.0,4.4,25.34,WSW,240,5.4,5.8,33,0.00,,---,0.00,VWS V14.00,2013-01-02 01:40:00,
2013-01-01 18:45:00,29.8,4.2,25.34,WSW,241,5.8,5.8,33,0.00,,---,0.00,VWS V14.00,2013-01-02 01:45:00,
2013-01-01 18:50:00,29.8,4.2,25.34,WSW,242,5.8,6.3,33,0.00,,---,0.00,VWS V14.00,2013-01-02 01:50:00,
2013-01-01 18:55:00,29.8,4.2,25.37,WSW,242,4.0,4.9,33,0.00,,---,0.00,VWS V14.00,2013-01-02 01:55:00,
2013-01-01 19:00:00,29.7,4.1,25.37,WSW,242,3.6,4.0,33,0.00,,---,0.00,VWS V14.00,2013-01-02 02:00:00,
2013-01-01 19:05:00,29.5,3.9,25.37,WSW,242,4.9,4.9,33,0.00,,---,0.00,VWS V14.00,2013-01-02 02:05:00,
2013-01-01 19:10:00,29.3,3.8,25.37,WSW,242,3.6,5.4,33,0.00,,---,0.00,VWS V14.00,2013-01-02 02:10:00,
2013-01-01 19:15:00,29.1,4.3,25.37,WSW,242,6.3,6.3,34,0.00,,---,0.00,VWS V14.00,2013-01-02 02:15:00,
2013-01-01 19:20:00,29.1,4.3,25.37,WSW,244,5.4,5.4,34,0.00,,---,0.00,VWS V14.00,2013-01-02 02:20:00,
2013-01-01 19:26:00,29.3,3.8,25.37,WSW,244,4.9,5.4,33,0.00,,---,0.00,VWS V14.00,2013-01-02 02:26:00,
2013-01-01 19:31:00,29.1,3.6,25.37,WSW,244,4.9,5.4,33,0.00,,---,0.00,VWS V14.00,2013-01-02 02:31:00,
2013-01-01 19:36:00,28.8,3.9,25.37,West,260,5.4,5.4,34,0.00,,---,0.00,VWS V14.00,2013-01-02 02:36:00,
2013-01-01 19:41:00,28.6,4.4,25.37,West,259,5.4,6.3,35,0.00,,---,0.00,VWS V14.00,2013-01-02 02:41:00,
2013-01-01 19:46:00,28.6,4.4,25.37,West,259,5.4,5.4,35,0.00,,---,0.00,VWS V14.00,2013-01-02 02:46:00,
2013-01-01 19:51:00,28.6,4.4,25.37,West,259,5.4,5.4,35,0.00,,---,0.00,VWS V14.00,2013-01-02 02:51:00,
2013-01-01 19:56:00,28.6,4.4,25.37,West,259,5.4,5.4,35,0.00,,---,0.00,VWS V14.00,2013-01-02 02:56:00,
2013-01-01 20:01:00,28.6,4.4,25.37,West,259,4.5,4.9,35,0.00,,---,0.00,VWS V14.00,2013-01-02 03:01:00,
2013-01-01 20:06:00,28.2,5.3,25.37,West,259,5.4,5.4,37,0.00,,---,0.00,VWS V14.00,2013-01-02 03:06:00,
2013-01-01 20:11:00,28.2,5.9,25.37,West,259,5.8,5.8,38,0.00,,---,0.00,VWS V14.00,2013-01-02 03:11:00,
2013-01-01 20:17:00,28.0,5.7,25.37,West,259,5.8,6.3,38,0.00,,---,0.00,VWS V14.00,2013-01-02 03:17:00,
2013-01-01 20:22:00,28.0,6.3,25.37,West,259,4.0,5.8,39,0.00,,---,0.00,VWS V14.00,2013-01-02 03:22:00,
2013-01-01 20:27:00,28.0,6.3,25.37,West,259,0.0,3.6,39,0.00,,---,0.00,VWS V14.00,2013-01-02 03:27:00,
2013-01-01 20:32:00,28.0,5.7,25.37,West,259,3.6,3.6,38,0.00,,---,0.00,VWS V14.00,2013-01-02 03:32:00,
2013-01-01 20:37:00,27.9,6.7,25.37,West,259,4.9,5.4,40,0.00,,---,0.00,VWS V14.00,2013-01-02 03:37:00,
2013-01-01 20:42:00,27.9,6.7,25.37,West,259,4.0,4.0,40,0.00,,---,0.00,VWS V14.00,2013-01-02 03:42:00,
2013-01-01 20:47:00,27.9,7.2,25.37,West,259,3.1,3.1,41,0.00,,---,0.00,VWS V14.00,2013-01-02 03:47:00,
2013-01-01 20:52:00,27.9,7.2,25.37,West,263,4.5,4.5,41,0.00,,---,0.00,VWS V14.00,2013-01-02 03:52:00,
2013-01-01 20:57:00,28.0,7.4,25.37,West,263,3.1,3.6,41,0.00,,---,0.00,VWS V14.00,2013-01-02 03:57:00,
2013-01-01 21:02:00,27.9,6.7,25.37,WSW,251,5.4,5.4,40,0.00,,---,0.00,VWS V14.00,2013-01-02 04:02:00,
2013-01-01 21:08:00,27.9,7.2,25.37,WSW,251,5.4,5.8,41,0.00,,---,0.00,VWS V14.00,2013-01-02 04:08:00,
2013-01-01 21:13:00,27.9,7.2,25.37,WSW,250,5.4,5.8,41,0.00,,---,0.00,VWS V14.00,2013-01-02 04:13:00,
2013-01-01 21:18:00,27.7,6.5,25.37,WSW,250,3.6,3.6,40,0.00,,---,0.00,VWS V14.00,2013-01-02 04:18:00,
2013-01-01 21:23:00,27.3,6.7,25.37,WSW,250,5.4,5.8,41,0.00,,---,0.00,VWS V14.00,2013-01-02 04:23:00,
2013-01-01 21:28:00,27.3,6.7,25.37,WSW,250,3.6,4.5,41,0.00,,---,0.00,VWS V14.00,2013-01-02 04:28:00,
2013-01-01 21:33:00,27.5,6.9,25.37,WSW,250,3.6,4.0,41,0.00,,---,0.00,VWS V14.00,2013-01-02 04:33:00,
2013-01-01 21:38:00,27.3,6.7,25.37,WSW,250,4.0,4.5,41,0.00,,---,0.00,VWS V14.00,2013-01-02 04:38:00,
2013-01-01 21:43:00,27.5,6.9,25.37,WSW,250,4.9,4.9,41,0.00,,---,0.00,VWS V14.00,2013-01-02 04:43:00,
2013-01-01 21:48:00,27.9,7.2,25.37,WSW,250,5.4,5.8,41,0.00,,---,0.00,VWS V14.00,2013-01-02 04:48:00,
2013-01-01 21:54:00,27.9,7.2,25.37,WSW,250,4.0,5.4,41,0.00,,---,0.00,VWS V14.00,2013-01-02 04:54:00,
2013-01-01 21:59:00,27.7,7.1,25.37,WSW,250,5.4,5.4,41,0.00,,---,0.00,VWS V14.00,2013-01-02 04:59:00,
2013-01-01 22:00:00,27.7,7.1,25.37,WSW,250,4.9,4.9,41,0.00,,---,0.00,VWS V14.00,2013-01-02 05:00:00,
2013-01-01 22:01:00,27.7,7.1,25.37,WSW,250,4.0,4.0,41,0.00,,---,0.00,VWS V14.00,2013-01-02 05:01:00,
2013-01-01 22:03:00,27.7,7.1,25.37,WSW,250,4.0,4.0,41,0.00,,---,0.00,VWS V14.00,2013-01-02 05:03:00,
2013-01-01 22:04:00,27.7,7.1,25.37,WSW,250,3.1,4.0,41,0.00,,---,0.00,VWS V14.00,2013-01-02 05:04:00,
2013-01-01 22:09:00,27.9,7.2,25.37,WSW,250,3.6,4.5,41,0.00,,---,0.00,VWS V14.00,2013-01-02 05:09:00,
2013-01-01 22:14:00,27.9,7.2,25.37,WSW,250,5.4,5.4,41,0.00,,---,0.00,VWS V14.00,2013-01-02 05:14:00,
2013-01-01 22:19:00,27.7,6.5,25.37,WSW,250,4.9,5.4,40,0.00,,---,0.00,VWS V14.00,2013-01-02 05:19:00,
2013-01-01 22:24:00,27.7,7.1,25.37,WSW,250,4.9,4.9,41,0.00,,---,0.00,VWS V14.00,2013-01-02 05:24:00,
2013-01-01 22:30:00,27.7,6.5,25.37,WSW,250,4.0,4.9,40,0.00,,---,0.00,VWS V14.00,2013-01-02 05:30:00,
2013-01-01 22:35:00,27.7,6.5,25.37,WSW,250,4.0,4.0,40,0.00,,---,0.00,VWS V14.00,2013-01-02 05:35:00,
2013-01-01 22:40:00,27.3,5.6,25.37,WSW,250,4.0,4.0,39,0.00,,---,0.00,VWS V14.00,2013-01-02 05:40:00,
2013-01-01 22:45:00,27.0,5.3,25.37,WSW,250,4.0,4.0,39,0.00,,---,0.00,VWS V14.00,2013-01-02 05:45:00,
2013-01-01 22:50:00,27.0,6.4,25.37,WSW,250,3.6,4.0,41,0.00,,---,0.00,VWS V14.00,2013-01-02 05:50:00,
2013-01-01 22:55:00,27.0,6.4,25.37,WSW,250,4.0,4.5,41,0.00,,---,0.00,VWS V14.00,2013-01-02 05:55:00,
2013-01-01 23:00:00,27.1,6.6,25.37,WSW,250,3.6,4.0,41,0.00,,---,0.00,VWS V14.00,2013-01-02 06:00:00,
2013-01-01 23:05:00,27.3,6.7,25.37,NW,308,4.9,4.9,41,0.00,,---,0.00,VWS V14.00,2013-01-02 06:05:00,
2013-01-01 23:10:00,27.9,6.7,25.40,NW,309,0.0,0.0,40,0.00,,---,0.00,VWS V14.00,2013-01-02 06:10:00,
2013-01-01 23:16:00,28.2,6.4,25.40,NW,309,0.0,0.0,39,0.00,,---,0.00,VWS V14.00,2013-01-02 06:16:00,
2013-01-01 23:21:00,28.0,5.7,25.40,NW,309,0.0,0.0,38,0.00,,---,0.00,VWS V14.00,2013-01-02 06:21:00,
2013-01-01 23:26:00,27.5,4.7,25.37,NW,309,0.0,0.0,37,0.00,,---,0.00,VWS V14.00,2013-01-02 06:26:00,
2013-01-01 23:31:00,26.6,3.3,25.37,WSW,258,4.0,4.5,36,0.00,,---,0.00,VWS V14.00,2013-01-02 06:31:00,
2013-01-01 23:36:00,26.2,4.1,25.37,WSW,258,3.1,3.1,38,0.00,,---,0.00,VWS V14.00,2013-01-02 06:36:00,
2013-01-01 23:41:00,26.1,4.5,25.37,WSW,258,4.5,4.5,39,0.00,,---,0.00,VWS V14.00,2013-01-02 06:41:00,
2013-01-01 23:46:00,26.1,5.6,25.37,WSW,258,3.6,3.6,41,0.00,,---,0.00,VWS V14.00,2013-01-02 06:46:00,
2013-01-01 23:51:00,25.9,5.4,25.37,WSW,258,0.0,0.0,41,0.00,,---,0.00,VWS V14.00,2013-01-02 06:51:00,
2013-01-01 23:56:00,25.3,4.4,25.37,WSW,258,0.0,0.0,40,0.00,,---,0.00,VWS V14.00,2013-01-02 06:56:00,